DW2633 Weather Reports


time (UTC)temp
F
wind
direction
speed
knots
gust
knots
rain 1hr
in
rain 24hr
in
rain mn
in
humidity
%
barometer
mb
20260503031524 43 279 12.2 0.0 0.00 0.00 0.00 69 1011.3
20260503031024 43 278 12.2 0.0 0.00 0.00 0.00 68 1011.2
20260503030524 43 287 12.2 0.0 0.00 0.00 0.00 67 1011.2
20260503030026 43 277 12.2 0.0 0.00 0.00 0.00 67 1011.3
20260503025523 43 273 12.2 0.0 0.00 0.00 0.00 69 1011.2
20260503025023 43 265 11.3 0.0 0.00 0.00 0.00 67 1011.2
20260503024523 43 262 11.3 0.0 0.00 0.00 0.00 67 1011.2
20260503024023 43 253 11.3 0.0 0.00 0.00 0.00 67 1011.2
20260503023522 43 257 11.3 0.0 0.00 0.00 0.00 67 1011.2
20260503023023 43 253 11.3 0.0 0.00 0.00 0.00 67 1011.2
20260503022522 43 264 11.3 0.0 0.00 0.00 0.00 68 1011.2
20260503022022 43 261 11.3 0.0 0.00 0.00 0.00 67 1011.2
20260503021522 43 251 10.4 0.0 0.00 0.00 0.00 67 1011.2
20260503021022 43 257 10.4 0.0 0.00 0.00 0.00 66 1011.3
20260503020522 43 255 9.6 0.0 0.00 0.00 0.00 66 1011.5
20260503020022 43 257 9.6 0.0 0.00 0.00 0.00 68 1011.5
20260503015521 44 267 10.4 0.0 0.00 0.00 0.00 66 1011.5
20260503015025 44 262 10.4 0.0 0.00 0.00 0.00 66 1011.5
20260503014524 44 258 10.4 0.0 0.00 0.00 0.00 65 1011.5
20260503014021 44 254 9.6 0.0 0.00 0.00 0.00 64 1011.5
20260503013521 44 259 10.4 0.0 0.00 0.00 0.00 65 1011.5
20260503013022 44 274 11.3 0.0 0.00 0.00 0.00 65 1011.5
20260503012522 44 279 11.3 0.0 0.00 0.00 0.00 67 1011.5
20260503012021 44 265 11.3 0.0 0.00 0.00 0.00 66 1011.5
20260503011523 44 272 10.4 0.0 0.00 0.00 0.00 66 1011.5
20260503011021 44 260 9.6 0.0 0.00 0.00 0.00 66 1011.6
20260503010522 44 286 10.4 0.0 0.00 0.00 0.00 64 1011.6
20260503010027 44 305 10.4 0.0 0.00 0.00 0.00 61 1011.5
20260503005520 44 277 11.3 0.0 0.00 0.00 0.00 66 1011.3
20260503005018 44 287 11.3 0.0 0.00 0.00 0.00 63 1011.4
20260503004519 44 306 11.3 0.0 0.00 0.00 0.00 65 1011.4
20260503004019 44 302 12.2 0.0 0.00 0.00 0.00 63 1011.3
20260503003516 44 284 12.2 0.0 0.00 0.00 0.00 67 1011.2
20260503003016 44 277 12.2 0.0 0.00 0.00 0.00 67 1011.1
20260503002519 44 263 12.2 0.0 0.00 0.00 0.00 68 1011.1
20260503002019 44 271 13.0 0.0 0.00 0.00 0.00 67 1011.1
20260503001516 44 266 12.2 0.0 0.00 0.00 0.00 67 1011.1
20260503001016 44 274 12.2 0.0 0.00 0.00 0.00 65 1011.0
20260503000515 44 271 12.2 0.0 0.00 0.00 0.00 65 1011.0
20260503000016 44 273 13.0 0.0 0.00 0.00 0.00 64 1011.0
20260502235515 45 260 13.9 0.0 0.00 0.00 0.00 67 1011.0
20260502235015 45 255 16.5 0.0 0.00 0.00 0.00 64 1011.0
20260502234523 45 253 17.4 0.0 0.00 0.00 0.00 66 1011.0
20260502234017 45 272 16.5 0.0 0.00 0.00 0.00 66 1010.9
20260502233515 45 274 14.8 0.0 0.00 0.00 0.00 68 1010.9
20260502233015 45 306 14.8 0.0 0.00 0.00 0.00 62 1010.9
20260502232514 45 288 14.8 0.0 0.00 0.00 0.00 63 1010.9
20260502232014 46 297 13.9 0.0 0.00 0.00 0.00 64 1010.8
20260502231514 46 284 13.0 0.0 0.00 0.00 0.00 65 1010.8
20260502231014 46 284 13.9 0.0 0.00 0.00 0.00 62 1010.8
20260502230514 46 291 14.8 0.0 0.00 0.00 0.00 62 1010.9
20260502230014 46 276 15.6 0.0 0.00 0.00 0.00 63 1010.8
20260502225517 46 287 17.4 0.0 0.00 0.00 0.00 62 1010.8
20260502225013 46 274 16.5 0.0 0.00 0.00 0.00 62 1010.8
20260502224513 47 291 15.6 0.0 0.00 0.00 0.00 59 1010.8
20260502224013 47 276 15.6 0.0 0.00 0.00 0.00 60 1010.7
20260502223515 47 266 15.6 0.0 0.00 0.00 0.00 62 1010.7
20260502223013 47 292 16.5 0.0 0.00 0.00 0.00 61 1010.7
20260502222513 47 279 16.5 0.0 0.00 0.00 0.00 61 1010.7
20260502222012 47 274 16.5 0.0 0.00 0.00 0.00 59 1010.6
20260502221512 47 282 16.5 0.0 0.00 0.00 0.00 62 1010.6
20260502221012 47 284 15.6 0.0 0.00 0.00 0.00 62 1010.5
20260502220512 47 285 15.6 0.0 0.00 0.00 0.00 61 1010.5
20260502220014 48 280 17.4 0.0 0.00 0.00 0.00 61 1010.5
20260502215511 48 280 16.5 0.0 0.00 0.00 0.00 60 1010.5
20260502215011 48 288 15.6 0.0 0.00 0.00 0.00 60 1010.5
20260502214530 48 284 16.5 0.0 0.00 0.00 0.00 59 1010.5
20260502214014 48 275 17.4 0.0 0.00 0.00 0.00 61 1010.4
20260502213511 48 288 17.4 0.0 0.00 0.00 0.00 63 1010.4
20260502213012 49 277 19.1 0.0 0.00 0.00 0.00 60 1010.4
20260502212511 49 275 18.2 0.0 0.00 0.00 0.00 60 1010.4
20260502212011 49 273 18.2 0.0 0.00 0.00 0.00 59 1010.3
20260502211517 49 284 18.2 0.0 0.00 0.00 0.00 61 1010.4
20260502211010 49 279 16.5 0.0 0.00 0.00 0.00 60 1010.3
20260502210510 49 278 13.9 0.0 0.00 0.00 0.00 56 1010.3
20260502210022 49 304 13.9 0.0 0.00 0.00 0.00 55 1010.3
20260502205514 49 286 14.8 0.0 0.00 0.00 0.00 57 1010.3
20260502205009 50 287 16.5 0.0 0.00 0.00 0.00 53 1010.3
20260502204516 50 281 18.2 0.0 0.00 0.00 0.00 60 1010.4
20260502204009 49 271 16.5 0.0 0.00 0.00 0.00 64 1010.4
20260502203508 49 273 16.5 0.0 0.00 0.00 0.00 61 1010.3
20260502203013 49 276 17.4 0.0 0.00 0.00 0.00 57 1010.3
20260502202510 50 273 18.2 0.0 0.00 0.00 0.00 58 1010.2
20260502202008 50 262 18.2 0.0 0.00 0.00 0.00 58 1010.3
20260502201509 51 277 17.4 0.0 0.00 0.00 0.00 59 1010.4
20260502201007 50 276 18.2 0.0 0.00 0.00 0.00 61 1010.6
20260502200609 50 271 19.1 0.0 0.00 0.00 0.00 60 1010.5
20260502200007 50 257 20.9 0.0 0.00 0.00 0.00 61 1010.4
20260502195506 50 279 20.9 0.0 0.00 0.00 0.00 61 1010.5
20260502195007 50 266 20.0 0.0 0.00 0.00 0.00 58 1010.5
20260502194506 50 261 18.2 0.0 0.00 0.00 0.00 57 1010.5
20260502194005 50 260 17.4 0.0 0.00 0.00 0.00 59 1010.5
20260502193505 50 265 17.4 0.0 0.00 0.00 0.00 63 1010.5
20260502193005 50 265 17.4 0.0 0.00 0.00 0.00 62 1010.5
20260502192505 50 277 18.2 0.0 0.00 0.00 0.00 60 1010.6
20260502192005 50 269 18.2 0.0 0.00 0.00 0.00 62 1010.6
20260502191514 50 257 17.4 0.0 0.00 0.00 0.00 65 1010.5
20260502191004 50 275 18.2 0.0 0.00 0.00 0.00 62 1010.5
20260502190504 51 254 18.2 0.0 0.00 0.00 0.00 61 1010.6
20260502190004 51 277 19.1 0.0 0.00 0.00 0.00 59 1010.5
20260502185506 52 261 18.2 0.0 0.00 0.00 0.00 56 1010.3
20260502185002 52 259 18.2 0.0 0.00 0.00 0.00 57 1010.3
20260502184507 52 258 15.6 0.0 0.00 0.00 0.00 60 1010.3
20260502184003 52 254 13.0 0.0 0.00 0.00 0.00 58 1010.3
20260502183503 52 252 13.0 0.0 0.00 0.00 0.00 55 1010.3
20260502183001 53 279 13.9 0.0 0.00 0.00 0.00 56 1010.3
20260502182604 53 240 13.9 0.0 0.00 0.00 0.00 61 1010.3
20260502182059 53 254 13.9 0.0 0.00 0.00 0.00 61 1010.3
20260502181559 53 251 14.8 0.0 0.00 0.00 0.00 62 1010.3
20260502181058 53 264 14.8 0.0 0.00 0.00 0.00 63 1010.3
20260502180557 52 244 10.4 0.0 0.00 0.00 0.00 66 1010.4
20260502180107 52 254 7.8 0.0 0.00 0.00 0.00 58 1010.5
20260502164051 52 260 13.9 0.0 0.00 0.00 0.00 61 1010.5
20260502163555 52 264 11.3 0.0 0.00 0.00 0.00 65 1010.4
20260502163050 51 240 12.2 0.0 0.00 0.00 0.00 62 1010.5
20260502162547 51 255 12.2 0.0 0.00 0.00 0.00 69 1010.6
20260502162045 50 257 8.7 0.0 0.00 0.00 0.00 67 1010.6
20260502161544 50 257 8.7 0.0 0.00 0.00 0.00 67 1010.5
20260502161044 49 277 8.7 0.0 0.00 0.00 0.00 66 1010.5
20260502160542 48 271 8.7 0.0 0.00 0.00 0.00 68 1010.5
20260502152038 47 279 8.7 0.0 0.00 0.00 0.00 73 1010.9
20260502151536 47 281 7.0 0.0 0.00 0.00 0.00 69 1010.9
20260502151037 47 306 7.8 0.0 0.00 0.00 0.00 70 1011.0
20260502150536 47 282 7.8 0.0 0.00 0.00 0.00 74 1011.0
20260502130535 45 276 12.2 0.0 0.00 0.00 0.00 79 1011.2
20260502123532 44 276 9.6 0.0 0.00 0.00 0.00 81 1010.8
20260502123031 44 266 8.7 0.0 0.00 0.00 0.00 82 1011.0
20260502122529 44 267 7.8 0.0 0.00 0.00 0.00 83 1010.9
20260502122031 44 261 7.8 0.0 0.00 0.00 0.00 83 1010.9
20260502121539 44 255 9.6 0.0 0.00 0.00 0.00 82 1010.8
20260502121029 44 275 10.4 0.0 0.00 0.00 0.00 82 1010.8
20260502120528 44 279 10.4 0.0 0.00 0.00 0.00 84 1010.9
20260502120128 44 264 10.4 0.0 0.00 0.00 0.00 84 1011.0
20260502115528 44 260 9.6 0.0 0.00 0.00 0.00 85 1011.0
20260502115028 43 261 10.4 0.0 0.00 0.00 0.00 85 1010.9
20260502114528 43 261 11.3 0.0 0.00 0.00 0.00 84 1011.0
20260502114026 43 263 12.2 0.0 0.00 0.00 0.00 85 1010.9
20260502113527 43 258 12.2 0.0 0.00 0.00 0.00 85 1010.8
20260502113026 43 264 12.2 0.0 0.00 0.00 0.00 85 1010.9
20260502112525 43 263 10.4 0.0 0.00 0.00 0.00 86 1010.8
20260502112024 43 261 10.4 0.0 0.00 0.00 0.00 86 1010.7
20260502111526 43 252 10.4 0.0 0.00 0.00 0.00 86 1010.6
20260502111025 43 281 10.4 0.0 0.00 0.00 0.00 87 1010.6
20260502110525 43 262 9.6 0.0 0.00 0.00 0.00 86 1010.5
20260502110031 43 244 8.7 0.0 0.00 0.00 0.00 85 1010.5
20260502105523 43 277 7.8 0.0 0.00 0.00 0.00 86 1010.5
20260502105022 43 288 7.8 0.0 0.00 0.00 0.00 86 1010.3
20260502104522 43 267 8.7 0.0 0.00 0.00 0.00 87 1010.2
20260502104021 42 294 9.6 0.0 0.00 0.00 0.00 88 1010.3
20260502103521 42 281 9.6 0.0 0.00 0.00 0.00 90 1010.3
20260502103022 42 248 10.4 0.0 0.00 0.00 0.00 89 1010.1
20260502102521 42 277 11.3 0.0 0.00 0.00 0.00 90 1010.2
20260502102021 42 243 13.0 0.0 0.00 0.00 0.00 90 1010.2
20260502101521 42 257 13.0 0.0 0.00 0.00 0.00 90 1010.0
20260502101020 42 247 12.2 0.0 0.00 0.00 0.00 90 1009.9
20260502100520 42 246 12.2 0.0 0.00 0.00 0.00 90 1009.9
20260502091512 42 244 2.6 0.0 0.00 0.00 0.00 89 1009.6
20260502091011 42 229 2.6 0.0 0.00 0.00 0.00 89 1009.6
20260502090511 43 231 2.6 0.0 0.00 0.00 0.00 89 1009.6
20260502071057 44 207 0.9 0.0 0.00 0.00 0.00 87 1009.3
20260502070557 44 207 0.9 0.0 0.00 0.00 0.00 87 1009.7
20260502070057 44 219 0.9 0.0 0.00 0.00 0.00 87 1009.8
20260502065557 44 213 2.6 0.0 0.00 0.00 0.00 87 1009.9
20260502065056 44 232 4.3 0.0 0.00 0.00 0.00 87 1009.8
20260502064601 44 250 5.2 0.0 0.00 0.00 0.00 86 1009.8
20260502064059 44 250 6.1 0.0 0.00 0.00 0.00 86 1009.8
20260502063556 44 261 6.1 0.0 0.00 0.00 0.00 86 1009.7
20260502063059 44 271 6.1 0.0 0.00 0.00 0.00 86 1009.7
20260502062556 44 278 5.2 0.0 0.00 0.00 0.00 87 1009.6
20260502062053 44 283 4.3 0.0 0.00 0.00 0.00 88 1009.6
20260502061554 44 274 4.3 0.0 0.00 0.00 0.00 88 1009.7
20260502061050 44 266 4.3 0.0 0.00 0.00 0.00 87 1009.7
20260502060549 44 275 3.5 0.0 0.00 0.00 0.00 87 1009.9
20260502060048 44 248 1.7 0.0 0.00 0.00 0.00 87 1010.0
20260502055549 44 221 0.9 0.0 0.00 0.00 0.00 87 1010.0
20260502055048 44 220 0.9 0.0 0.00 0.00 0.00 87 1010.0
20260502054546 44 223 0.9 0.0 0.00 0.00 0.00 86 1010.0
20260502054045 44 222 0.0 0.0 0.00 0.00 0.00 86 1010.2
20260502053545 44 215 0.9 0.0 0.00 0.00 0.00 86 1010.1
20260502053045 45 178 0.9 0.0 0.00 0.00 0.00 86 1010.1
20260502052544 45 180 0.0 0.0 0.00 0.00 0.00 85 1010.2
20260502052047 45 180 0.9 0.0 0.00 0.00 0.00 85 1010.2
20260502051543 45 180 0.9 0.0 0.00 0.00 0.00 84 1010.2
20260502051042 45 181 1.7 0.0 0.00 0.00 0.00 84 1010.2
20260502050541 45 182 1.7 0.0 0.00 0.00 0.00 83 1010.2
20260502050046 45 178 1.7 0.0 0.00 0.00 0.00 83 1010.2
20260502045540 46 180 0.9 0.0 0.00 0.00 0.00 82 1010.2
20260502045039 46 207 0.0 0.0 0.00 0.00 0.00 81 1010.2
20260502044538 46 206 0.0 0.0 0.00 0.00 0.00 79 1010.1
20260502044036 46 207 0.0 0.0 0.00 0.00 0.00 79 1010.1
20260502043536 47 207 0.9 0.0 0.00 0.00 0.00 77 1010.0
20260502043037 47 230 2.6 0.0 0.00 0.00 0.00 75 1010.2
20260502042537 47 229 3.5 0.0 0.00 0.00 0.00 73 1010.2
20260502042034 47 230 3.5 0.0 0.00 0.00 0.00 73 1010.2
20260502041533 47 246 3.5 0.0 0.00 0.00 0.00 73 1010.2
20260502041031 47 223 3.5 0.0 0.00 0.00 0.00 73 1010.1
20260502040533 47 242 3.5 0.0 0.00 0.00 0.00 72 1010.2
20260502040030 47 236 5.2 0.0 0.00 0.00 0.00 73 1010.0
20260502035530 47 216 5.2 0.0 0.00 0.00 0.00 72 1010.0
20260502035030 47 225 4.3 0.0 0.00 0.00 0.00 72 1010.0
20260502034530 47 261 5.2 0.0 0.00 0.00 0.00 73 1009.9
20260502034029 47 263 6.1 0.0 0.00 0.00 0.00 73 1010.1
20260502033529 47 260 6.1 0.0 0.00 0.00 0.00 72 1010.3
20260502033039 48 276 6.1 0.0 0.00 0.00 0.00 71 1010.3
20260502032528 48 273 6.1 0.0 0.00 0.00 0.00 71 1010.3
20260502032029 48 271 6.1 0.0 0.00 0.00 0.00 71 1010.3